RH
24 23 26 24 27 29 23 21 23 25 27 28 28 28 27 30 33 37 42 50 58 65 69 74 72 72 80 84 74 62 70 86 84 78 90 72 58 50 49 48 41 35 25 21 20 25 22
23 20 26 26 28 30 24 23 24 26 28 32 33 29 31 34 35 38 42 50 66 76 77 82 87 90 93 93 80 76 86 95 85 95 97 80 57 53 49 47 41 34 28 23 22 24 22
19 19 23 25 26 28 25 24 26 27 30 34 36 36 34 37 42 45 49 52 73 82 83 86 91 97 97 95 91 97 98 95 89 97 97 83 67 57 51 50 41 34 31 27 26 24 25
15 19 20 24 25 25 25 25 26 28 32 35 38 41 42 48 54 60 59 68 82 80 86 92 92 96 98 98 98 99 98 95 98 97 94 90 78 58 54 47 42 37 35 35 30 27 27
15 16 20 22 23 24 26 25 28 30 32 35 39 42 46 55 61 66 72 75 80 80 79 85 86 88 97 96 96 93 95 95 98 94 95 91 83 61 51 46 49 44 44 36 34 32 28
15 14 19 21 23 24 27 27 29 32 34 35 40 43 47 53 61 70 74 84 80 84 82 84 83 84 87 95 93 94 92 88 95 97 93 95 83 63 54 51 51 44 42 36 36 36 32
15 15 15 21 23 24 25 29 29 32 35 37 39 44 48 53 60 68 78 89 85 81 80 89 93 86 85 89 88 82 86 84 82 90 97 93 78 63 51 42 39 38 35 36 36 36 31
17 15 15 18 23 24 22 26 28 31 36 38 41 44 48 53 60 69 77 90 91 90 87 84 89 89 82 90 88 83 80 79 71 80 95 91 81 63 56 48 41 37 34 37 35 33 28
19 16 15 15 20 20 22 20 27 26 32 38 41 45 49 56 62 70 77 86 95 90 88 90 93 95 87 88 90 89 83 82 76 82 96 96 81 73 59 50 43 37 33 34 32 30 27
24 19 16 15 16 21 19 19 21 28 28 34 39 43 49 54 61 69 77 81 82 89 86 93 95 91 89 89 88 92 90 84 84 94 97 89 78 69 62 53 45 39 33 31 31 30 36
31 30 22 16 14 18 21 20 18 21 29 31 37 42 46 51 58 66 74 76 78 84 84 90 97 91 90 90 88 89 90 90 83 86 89 88 77 71 63 53 48 42 36 32 30 30 30
32 33 32 22 16 14 19 22 20 18 23 29 35 41 43 47 54 66 70 73 76 75 85 93 97 97 98 97 91 91 87 89 78 89 88 84 77 71 66 57 50 48 42 37 35 33 38
33 33 31 28 22 17 16 22 25 19 19 27 33 40 43 46 51 65 71 73 79 84 85 92 96 97 95 95 93 88 85 82 87 83 85 85 78 72 65 58 54 49 49 55 50 48 46
31 33 31 30 27 23 18 18 24 26 20 24 30 37 42 47 49 63 73 73 79 84 93 95 94 92 97 96 91 87 83 85 67 58 74 83 84 74 69 62 54 52 46 51 46 48 47
30 32 31 31 28 28 24 19 22 25 29 22 27 32 38 46 48 56 71 75 78 79 83 90 92 91 86 87 94 87 72 66 65 64 62 74 77 71 67 63 56 52 53 45 49 50 50
28 30 29 30 27 28 26 21 22 27 29 32 26 31 35 41 46 48 64 73 72 76 79 81 85 84 85 81 80 79 82 84 78 72 64 59 75 71 67 64 58 51 50 51 55 50 38
26 27 28 29 27 27 26 23 22 26 29 32 39 30 33 39 44 45 54 72 72 73 79 80 76 77 75 80 79 80 80 81 80 77 73 68 67 69 62 63 57 55 51 50 49 50 52
26 25 26 28 29 26 26 23 22 24 27 30 38 38 30 32 38 43 49 50 66 72 76 77 72 72 76 76 78 80 82 82 80 76 73 73 67 72 62 61 58 55 48 47 46 40 50
28 23 25 28 27 26 26 24 23 21 25 30 34 41 40 31 33 39 42 45 49 63 72 74 73 72 73 74 78 80 76 78 77 76 74 70 67 71 61 56 55 52 49 44 44 44 44
27 24 24 27 24 26 26 25 24 21 23 30 37 40 46 39 29 33 36 41 44 47 60 69 69 70 71 72 73 77 79 76 74 74 74 71 69 56 53 47 49 51 48 47 42 51 39
27 25 23 23 23 24 26 27 25 21 20 29 36 37 40 50 31 29 30 33 38 40 46 56 61 68 69 72 70 73 70 76 73 73 69 71 71 63 57 54 53 51 48 48 44 37 34
28 25 23 21 24 24 25 27 26 22 20 21 30 40 39 40 46 35 29 28 30 32 31 36 54 61 61 64 63 63 61 61 60 64 63 65 67 62 60 53 51 47 48 47 45 38 36
37 30 23 22 23 26 25 25 26 23 19 19 22 31 40 44 42 49 42 28 29 28 31 30 30 45 56 59 59 59 58 54 53 55 56 55 58 64 59 57 45 38 35 40 42 37 33
44 37 31 25 25 26 27 26 25 23 21 21 21 24 37 44 43 43 49 44 32 30 30 31 29 29 38 46 52 53 52 52 51 51 47 48 50 51 55 37 38 27 27 27 31 29 27
50 46 34 32 28 27 29 28 27 24 21 21 22 22 24 38 43 44 45 51 51 36 31 31 32 31 27 33 36 38 42 38 42 46 44 42 41 43 40 33 24 21 22 25 24 19 24
67 60 50 34 32 30 29 29 30 27 22 21 21 23 23 27 38 44 46 47 48 53 50 38 37 34 32 31 26 30 36 30 38 40 43 42 42 38 42 28 19 19 21 20 21 21 18
79 80 68 51 34 38 33 30 31 31 26 21 21 21 22 24 30 39 45 50 49 50 54 58 49 41 34 33 31 30 28 31 35 35 38 41 41 40 39 33 23 19 21 21 17 13 17
96 91 83 56 42 37 35 36 36 35 33 27 22 22 22 23 25 31 41 47 50 52 51 51 54 54 50 35 34 35 30 31 31 31 33 30 34 36 35 33 21 19 21 20 17 18 19
98 96 84 73 53 44 40 38 37 35 33 34 28 24 23 24 29 30 32 39 46 51 53 54 48 50 49 52 53 44 34 32 30 28 33 30 24 27 27 24 21 25 24 23 23 23 24